Weather History for Burns, OR

Change the Weather History Date:

Sunday, March 31, 2013

  Actual Average Record
Temperature  
Mean Temperature 50 °F 40 °F  
Max Temperature 72 °F 53 °F 73 °F (1966)
Min Temperature 27 °F 28 °F 12 °F (2008)
Degree Days  
Heating Degree Days 15 25  
Month to date heating degree days 832 859  
Since 1 July heating degree days 6189 6385  
Cooling Degree Days 0 0  
Month to date cooling degree days 0 0  
Year to date cooling degree days 0 0  
Moisture  
Dew Point 29 °F    
Average Humidity 55    
Maximum Humidity 92    
Minimum Humidity 17    
Precipitation  
Precipitation 0.00 in 0.03 in 0.57 in (1978)
Month to date precipitation 0.18 1.09  
Year to date precipitation 0.92 3.30  
Sea Level Pressure  
Sea Level Pressure 29.96 in    
Wind  
Wind Speed 7 mph (NE)    
Max Wind Speed 21 mph    
Max Gust Speed 28 mph    
Visibility 10 miles    
Events      
T = Trace of Precipitation, MM = Missing Value Source: NWS Daily Summary

Daily Weather History Graph

Daily Weather History Graph

Search for Another Location

Airport:

Trip Planner

Search our weather history database for the weather conditions in past years. The results will help you decide how hot, cold, wet, or windy it might be!

Date:

Astronomy

Mar. 31, 2013 Rise Set
Actual Time 6:38 AM PDT 7:21 PM PDT
Civil Twilight 6:09 AM PDT 7:50 PM PDT
Nautical Twilight 5:35 AM PDT 8:25 PM PDT
Astronomical Twilight 4:59 AM PDT 9:00 PM PDT
Moon No Moon Rise 9:22 AM PDT (3/31)
Length of Visible Light 13h 41m
Length of Day
12h 43m
Waning Gibbous, 76% of the Moon is Illuminated
Mar 31
Waning Gibbous
Apr 2
Last Quarter
Apr 10
New
Apr 18
First Quarter
Apr 25
Full

Hourly Weather History & Observations

Time (PDT) Temp. Windchill Dew Point Humidity Pressure Visibility Wind Dir Wind Speed Gust Speed Precip Events Conditions
12:53 AM 35.1 °F 32.2 °F 28.0 °F 76% 30.06 in 10.0 mi WNW 3.5 mph - N/A   Clear
1:53 AM 32.0 °F 26.4 °F 28.0 °F 85% 30.06 in 10.0 mi SW 5.8 mph - N/A   Clear
2:53 AM 33.1 °F 27.7 °F 28.9 °F 85% 30.05 in 10.0 mi SW 5.8 mph - N/A   Clear
3:53 AM 30.0 °F 26.5 °F 27.0 °F 88% 30.05 in 10.0 mi WSW 3.5 mph - N/A   Clear
4:53 AM 28.0 °F 22.8 °F 26.1 °F 92% 30.04 in 10.0 mi NNW 4.6 mph - N/A   Clear
5:53 AM 28.0 °F 20.0 °F 25.0 °F 88% 30.03 in 10.0 mi SW 8.1 mph - N/A   Clear
6:53 AM 30.9 °F 24.3 °F 27.0 °F 85% 30.04 in 10.0 mi West 6.9 mph - N/A   Clear
7:53 AM 41.0 °F - 32.0 °F 70% 30.04 in 10.0 mi Calm Calm - N/A   Clear
8:53 AM 55.0 °F - 34.0 °F 45% 30.01 in 10.0 mi NE 9.2 mph - N/A   Clear
9:53 AM 59.0 °F - 30.9 °F 35% 30.00 in 10.0 mi NNE 18.4 mph 24.2 mph N/A   Clear
10:53 AM 62.1 °F - 28.9 °F 29% 30.00 in 10.0 mi NNE 18.4 mph 24.2 mph N/A   Clear
11:53 AM 64.0 °F - 26.1 °F 24% 29.99 in 10.0 mi NE 15.0 mph 23.0 mph N/A   Clear
12:53 PM 66.0 °F - 26.1 °F 22% 29.96 in 10.0 mi NNE 16.1 mph 21.9 mph N/A   Clear
1:53 PM 66.0 °F - 27.0 °F 23% 29.95 in 10.0 mi NE 12.7 mph 16.1 mph N/A   Clear
2:53 PM 69.1 °F - 26.1 °F 20% 29.91 in 10.0 mi Variable 5.8 mph - N/A   Clear
3:53 PM 71.1 °F - 25.0 °F 18% 29.89 in 10.0 mi Variable 4.6 mph - N/A   Partly Cloudy
4:53 PM 70.0 °F - 25.0 °F 18% 29.87 in 10.0 mi NE 5.8 mph - N/A   Clear
5:53 PM 66.0 °F - 25.0 °F 21% 29.87 in 10.0 mi ENE 6.9 mph - N/A   Clear
6:53 PM 59.0 °F - 28.0 °F 31% 29.87 in 10.0 mi ENE 5.8 mph - N/A   Clear
7:53 PM 52.0 °F - 30.0 °F 43% 29.86 in 10.0 mi NE 4.6 mph - N/A   Overcast
8:53 PM 51.1 °F - 32.0 °F 48% 29.86 in 10.0 mi East 3.5 mph - N/A   Overcast
9:53 PM 53.1 °F - 39.0 °F 59% 29.88 in 10.0 mi South 5.8 mph - N/A   Overcast
10:53 PM 46.9 °F - 39.9 °F 77% 29.90 in 10.0 mi ESE 6.9 mph - N/A   Clear
11:53 PM 43.0 °F - 39.0 °F 86% 29.91 in 10.0 mi Calm Calm - N/A   Partly Cloudy